Find Starlink 35982

NORAD ID: 66828 Int'l Des: 2025-280 Owner: SPXS Country: US Constellation: starlink operational
LEOCIRCULAR

Current View

Loading 3D Globe...

About Starlink 35982

Description loading...

Upcoming Passes

Passes for default location (London). Set your location on the main map for personalized predictions.

Altitude History

Loading altitude history...

Two-Line Element Set

1 66828U 25280H 26146.26864811 .00004007 00000-0 34334-3 0 9993
2 66828 70.0005 138.9668 0003865 264.4222 95.6497 14.98340894 27693
Epoch: May 26, 2026 • Age: 6 hours

Current Status

Altitude 593.8 km
Velocity 7.56 km/s
Sub-Earth Point -65.63°S, 13.38°E
Launch Date Dec 2, 2025
Age 0.4 years
Type internet

Technical Details

Classification Payload
Mass 575.00 kg
Dry Mass 530.00 kg
Total Mass 575.00 kg
Length 0.30 m
Diameter 4.10 m
Span 29.00 m
Shape Box + pan
Manufacturer SPXS
Bus Type Starlink V2MO
Phase Status In Orbit
Owner/State SPXS/US

Most Searched